User: anonymous   Login
Location: Young's Pond
(41.2695°N, 72.7766°W)
Time: 14:15:51
(UTC-05:00)
Language:

Spot 4 - Orbit

View from above orbital plane
View from above orbital plane
View from above satellite
View from above satellite

Ground track
Ground track

The orbit data is extracted from the following two-line orbital elements,

1 25260U 98017A   14332.22453996  .00000605  00000-0  15751-3 0  5071
2 25260 098.4419 037.4035 0012030 252.5638 107.4243 14.53101982866488
Epoch (UTC): 28 November 2014 05:23:20
Eccentricity: 0.0012030
inclination: 98.4419°
perigee height: 707 km
apogee height: 724 km
right ascension of ascending node: 37.4035°
argument of perigee: 252.5638°
revolutions per day: 14.53101982
mean anomaly at epoch: 107.4243°
orbit number at epoch: 86648

The dashed part of the orbit path shows where the satellite is in the earth's shadow,  

DLR